Wetbulb
54.35 54.94 55.05 54.42 53.38 51.45 49.71 45.90 49.17 50.98 50.92 47.78 45.52 46.06 47.12 46.92 49.33 50.27 49.36 49.23 48.43 48.24 48.04 48.16 48.61 48.47 51.11 52.38 51.84 50.17 53.46 51.95 49.16 50.79 53.05 55.95 58.58 56.77 56.67 52.12 50.46 52.34 50.87 51.19
54.13 54.77 54.64 53.77 53.08 51.88 48.22 46.29 48.51 52.17 50.28 44.73 45.20 46.39 47.61 48.87 48.55 49.28 49.01 48.51 49.09 49.39 48.87 47.46 48.51 48.97 51.85 51.35 52.04 51.30 51.44 49.24 45.20 46.38 49.61 51.86 53.20 56.17 57.71 55.52 54.21 51.63 48.77 50.79
53.93 54.29 54.40 53.71 53.07 52.02 49.04 47.70 47.61 49.30 49.82 46.70 46.31 47.01 47.13 47.61 50.30 49.68 50.00 49.80 49.51 49.24 48.86 50.24 49.55 50.83 52.71 52.21 52.32 59.13 56.37 49.85 47.52 44.23 47.41 50.65 49.62 51.39 55.05 54.80 51.36 50.91 51.05 52.72
53.38 54.03 54.07 54.03 53.04 51.59 49.06 47.91 46.63 46.14 45.37 47.55 46.95 47.35 48.21 47.58 47.01 49.31 49.95 48.76 49.31 48.32 47.88 49.06 49.77 51.13 51.94 52.55 54.60 52.42 52.35 48.78 49.87 50.09 50.42 50.28 50.43 49.95 50.57 51.36 52.86 49.79 51.86 53.13
52.66 53.48 54.24 54.32 52.92 50.48 49.41 47.22 46.48 47.83 45.90 45.19 46.09 44.41 46.35 47.06 47.35 48.26 48.27 48.45 48.82 49.53 48.56 49.60 49.71 50.69 51.52 51.99 52.80 51.26 49.61 49.02 48.84 48.88 49.30 49.43 48.99 50.97 52.00 52.39 52.81 53.74 53.90 53.74
52.63 53.04 54.35 54.67 53.01 50.25 47.12 47.64 48.78 46.03 41.98 44.66 44.98 46.93 47.47 47.39 47.86 49.24 49.82 49.94 49.20 49.20 48.83 49.94 50.98 51.62 51.35 52.17 51.91 50.98 50.46 48.49 47.74 47.21 47.88 48.16 45.43 49.25 50.53 53.27 54.63 54.23 51.18 54.44
52.63 52.66 54.66 54.95 53.85 51.03 48.10 47.00 47.54 45.12 43.72 45.32 45.90 46.75 47.71 47.66 47.93 47.49 49.21 50.59 49.62 49.60 51.48 50.36 50.51 50.94 50.79 50.56 51.11 51.22 50.40 49.21 48.33 47.96 47.16 41.97 50.49 51.19 52.89 51.58 52.60 53.74 54.34 56.07
53.04 53.31 54.33 54.57 54.14 53.01 49.30 48.41 47.56 46.20 43.24 45.19 46.18 46.69 46.49 47.58 47.90 48.01 48.60 49.73 50.06 50.64 49.89 50.25 47.94 48.95 49.76 49.50 49.24 49.93 50.19 50.56 48.31 46.92 46.20 47.81 50.36 50.41 51.11 49.79 51.24 53.92 53.72 55.25
53.16 53.82 54.17 54.47 54.28 53.04 50.80 49.16 49.29 47.37 44.81 44.88 46.24 46.25 45.59 46.85 46.93 47.70 48.32 50.83 51.19 49.68 49.18 48.74 45.30 43.89 46.78 46.78 47.83 48.55 48.86 50.01 50.08 46.79 45.25 44.01 50.85 51.71 54.23 53.21 49.38 56.51 56.55 58.47
53.21 53.84 54.22 54.48 53.82 53.17 52.21 50.24 49.79 48.25 45.72 47.57 47.07 46.40 46.20 46.98 46.24 46.98 46.79 47.45 49.07 49.15 48.57 46.58 45.38 45.24 46.37 45.39 46.30 46.49 47.91 48.23 47.29 48.00 46.99 48.88 49.52 52.57 54.48 49.18 50.97 53.67 57.74 60.36
53.40 53.95 54.17 54.08 53.35 53.42 51.52 49.99 50.68 48.51 46.22 47.00 47.82 48.81 46.87 47.65 46.99 46.58 46.17 47.02 48.11 48.64 46.65 46.05 45.51 45.29 46.06 45.72 45.85 46.19 47.69 47.03 47.30 46.48 45.69 44.83 51.10 52.48 50.99 50.86 53.42 55.33 58.69 61.74
53.84 54.19 54.01 53.67 53.48 53.15 49.99 48.30 50.45 49.85 47.35 46.87 48.32 50.03 50.63 50.16 49.51 48.29 46.24 45.87 45.14 47.15 46.10 45.66 46.16 45.45 46.27 44.47 43.80 47.76 45.22 47.67 48.26 48.31 48.70 51.63 51.85 50.90 52.73 53.58 53.98 55.48 56.80 61.48
53.63 53.96 53.90 53.40 53.07 53.15 51.37 48.78 48.41 48.52 46.95 47.85 48.91 48.24 50.84 51.75 51.13 51.90 48.09 47.80 46.98 47.31 47.61 47.63 47.02 44.88 47.92 44.99 45.46 45.56 47.64 48.18 48.91 48.04 49.22 50.26 50.91 52.31 52.44 54.04 55.24 56.75 57.69 61.90
53.66 53.61 53.57 53.05 52.76 52.86 51.95 49.55 49.02 48.41 46.38 44.54 45.18 50.28 48.78 50.80 51.24 50.73 50.46 49.55 48.61 48.50 48.90 47.54 46.85 46.43 46.57 46.58 45.43 45.74 48.18 48.25 46.41 47.38 49.61 51.72 51.79 52.49 52.07 53.25 55.48 56.81 57.60 58.29
53.54 53.54 53.13 52.82 52.73 52.27 50.07 50.15 49.92 49.94 46.57 44.04 45.28 47.90 49.53 50.72 51.09 50.40 50.69 50.42 49.28 48.86 47.39 46.87 45.82 46.72 46.56 46.37 45.77 46.13 48.77 47.10 47.44 47.13 48.34 48.73 50.39 52.03 52.88 52.95 53.62 56.46 56.93 57.19
53.42 53.17 53.23 52.76 52.49 50.49 50.02 48.31 51.29 50.62 49.42 46.22 42.63 47.16 48.32 50.83 51.55 50.53 49.56 48.81 47.87 48.51 47.86 46.22 47.04 45.64 45.95 45.12 44.26 47.10 46.45 47.71 48.89 47.58 50.78 50.69 51.41 52.06 53.35 52.91 53.16 54.44 57.02 57.98
52.99 52.94 52.68 52.77 52.35 49.88 46.78 46.14 48.86 50.29 50.00 45.81 43.39 44.20 48.00 49.63 49.59 49.49 49.45 49.11 47.33 47.92 46.81 46.39 46.88 47.10 47.00 45.28 42.15 45.60 49.77 51.76 51.69 52.14 52.21 51.06 51.93 51.48 54.11 53.75 54.22 54.91 56.75 57.92
52.94 53.05 52.64 52.35 50.57 50.33 48.77 51.94 51.45 50.09 47.19 45.69 41.66 42.52 45.86 48.46 45.95 46.33 47.16 47.14 47.97 45.70 45.97 46.48 45.80 46.73 46.46 42.47 46.32 47.32 51.82 52.40 52.15 52.89 53.18 52.40 53.25 53.67 53.46 54.47 54.20 53.50 55.50 57.17
52.93 52.74 52.38 52.30 50.25 47.94 49.79 54.11 51.36 49.24 47.51 42.43 42.10 40.63 40.12 46.90 44.80 45.80 47.00 46.06 43.68 45.79 44.89 44.76 45.34 44.47 41.42 44.49 45.99 50.18 50.74 50.23 50.38 52.05 52.70 52.99 52.23 52.59 53.02 52.74 52.73 52.21 53.51 55.99
51.44 51.69 48.14 45.39 50.54 53.01 52.52 48.69 47.04 45.51 45.29 44.52 41.00 41.78 41.32 44.74 44.29 43.65 44.92 44.70 41.41 41.18 42.50 45.28 43.96 43.42 46.81 47.89 48.54 50.01 51.94 51.96 52.09 49.78 49.35 50.70 50.80 51.47 52.13 52.58 53.53 54.12 54.32 54.32
48.21 46.25 45.79 49.88 51.08 50.45 47.25 43.21 43.13 43.33 42.10 44.35 43.01 42.67 42.63 46.15 42.76 42.82 43.50 42.46 42.95 39.25 41.06 42.17 42.34 42.60 46.31 51.09 52.33 53.39 53.25 52.58 52.24 52.15 52.39 52.56 52.53 51.90 52.15 52.84 53.78 54.25 54.93 54.99
48.34 47.79 47.90 47.49 45.43 43.80 42.76 41.07 43.26 42.24 40.61 43.59 41.57 44.82 45.08 45.98 45.72 43.95 43.46 40.58 42.08 36.75 43.65 41.99 39.80 45.43 48.15 49.08 51.00 51.60 51.82 52.65 52.75 53.34 52.36 52.70 52.80 53.15 53.27 53.49 53.70 54.32 55.07 55.75
49.54 45.83 43.57 42.92 43.07 38.39 38.06 36.67 39.73 40.92 44.58 44.67 44.75 44.56 45.68 44.91 45.76 43.55 41.90 38.19 38.34 44.59 40.72 39.20 42.25 46.44 46.54 48.07 49.43 49.45 51.69 52.16 51.78 51.89 53.18 53.69 53.49 54.03 53.77 53.26 54.32 54.98 54.68 55.33
45.04 42.25 36.39 39.89 38.28 39.46 40.56 41.32 42.72 45.02 44.17 43.30 44.19 46.16 45.61 44.45 43.51 43.40 37.89 41.76 43.67 37.68 35.65 36.50 42.90 45.56 46.97 49.27 50.22 50.37 50.33 51.08 51.60 51.99 52.58 52.53 52.90 53.50 54.66 54.56 54.85 54.44 54.25 55.06
42.84 43.94 36.70 39.33 41.99 43.37 43.82 44.19 44.46 44.17 44.67 44.49 44.72 45.09 44.58 44.15 42.45 43.61 42.11 38.91 36.50 36.79 36.94 42.23 45.19 47.62 49.40 49.63 50.27 50.61 51.04 51.45 51.52 51.99 51.80 52.16 52.55 52.78 53.03 54.61 55.12 55.76 55.58 55.37
43.92 43.40 41.22 42.32 41.26 41.53 42.52 42.89 43.01 45.58 45.84 44.67 44.87 42.63 41.27 41.38 42.23 40.06 37.85 36.39 35.30 39.40 43.82 46.92 49.48 50.14 50.58 51.04 51.09 51.45 52.40 52.38 52.54 52.68 53.00 53.25 52.68 52.16 52.51 53.58 54.66 54.56 55.18 55.25
43.18 41.14 44.14 43.32 42.81 42.15 42.97 43.90 44.08 46.85 44.58 41.58 42.55 39.08 38.29 42.45 39.81 39.37 41.58 39.50 43.12 46.17 47.23 48.92 51.58 50.75 50.87 51.90 51.30 52.02 52.16 52.21 52.39 52.66 52.91 53.07 53.95 54.10 53.49 52.15 52.62 53.28 54.47 54.97
MSLP
1017.51 1016.85 1016.19 1015.47 1014.68 1013.59 1012.56 1012.13 1011.25 1011.29 1011.35 1010.46 1009.66 1008.01 1007.08 1006.37 1005.70 1005.50 1004.95 1004.62 1004.14 1003.72 1003.54 1003.38 1003.46 1003.39 1003.21 1003.53 1003.95 1004.72 1005.05 1004.93 1005.04 1005.22 1005.54 1005.56 1005.35 1005.39 1005.99 1005.99 1006.24 1006.49 1005.53 1002.92
1017.42 1016.78 1016.12 1015.43 1014.74 1014.24 1013.65 1012.40 1011.54 1011.25 1010.95 1009.49 1008.69 1007.87 1006.79 1006.11 1005.68 1005.28 1004.98 1004.62 1004.42 1004.10 1003.55 1003.60 1003.48 1003.44 1003.54 1003.62 1003.65 1003.69 1004.63 1004.66 1004.64 1004.61 1005.20 1005.48 1004.97 1005.05 1005.00 1005.23 1005.61 1004.97 1004.65 1002.16
1017.33 1016.73 1016.09 1015.40 1014.72 1014.19 1013.79 1012.68 1011.34 1010.77 1010.28 1009.63 1008.19 1007.24 1006.56 1005.94 1005.59 1005.33 1005.21 1004.90 1004.64 1004.28 1003.81 1003.80 1003.51 1003.49 1003.76 1003.89 1003.93 1004.05 1004.12 1003.79 1003.70 1003.24 1003.36 1003.68 1004.11 1004.07 1004.34 1004.26 1004.19 1003.58 1003.47 1001.75
1017.23 1016.64 1016.03 1015.35 1014.67 1014.08 1013.91 1012.67 1011.63 1011.16 1009.81 1008.99 1008.07 1007.23 1006.47 1005.95 1005.73 1005.69 1005.51 1005.17 1004.84 1004.56 1004.14 1003.99 1003.74 1003.82 1003.91 1004.18 1004.37 1004.40 1004.03 1003.44 1003.31 1002.70 1002.44 1003.11 1002.96 1002.94 1003.00 1003.49 1003.08 1003.11 1001.77 1001.35
1017.18 1016.59 1015.99 1015.35 1014.66 1013.97 1013.66 1013.09 1012.36 1011.47 1010.41 1009.38 1008.32 1007.55 1006.77 1006.22 1006.11 1005.96 1005.56 1005.30 1005.08 1005.09 1004.77 1004.51 1004.27 1004.10 1004.04 1003.89 1004.27 1004.31 1004.61 1003.85 1003.59 1002.87 1003.05 1002.91 1002.58 1002.45 1002.30 1002.42 1002.47 1002.72 1001.97 1001.34
1017.15 1016.59 1016.00 1015.43 1014.96 1014.24 1014.09 1013.89 1013.42 1012.41 1010.98 1009.60 1008.64 1007.62 1007.17 1006.73 1006.72 1006.43 1006.03 1005.68 1005.59 1005.76 1005.97 1005.81 1005.37 1004.97 1004.73 1004.53 1004.46 1004.39 1004.55 1004.20 1003.84 1002.89 1003.12 1003.13 1002.90 1002.01 1001.97 1001.84 1001.83 1001.49 1001.05 1000.38
1017.06 1016.57 1016.03 1015.58 1015.31 1015.30 1015.30 1014.84 1014.18 1012.73 1010.90 1010.13 1008.97 1008.29 1007.81 1007.37 1007.33 1007.00 1006.68 1006.41 1006.37 1007.04 1006.76 1006.46 1005.86 1005.32 1005.07 1005.11 1004.99 1005.05 1004.75 1004.56 1004.25 1003.47 1003.47 1002.58 1001.21 1001.79 1001.31 1001.29 1000.99 1001.27 1000.68 1000.45
1016.98 1016.50 1016.00 1015.65 1015.40 1015.25 1015.22 1014.98 1014.49 1013.19 1011.63 1010.86 1009.83 1009.14 1008.54 1008.25 1008.04 1007.70 1007.50 1007.51 1007.78 1007.32 1006.52 1005.87 1005.59 1005.29 1005.02 1005.35 1005.56 1005.39 1005.34 1004.83 1004.50 1004.11 1003.28 1002.74 1002.08 1002.68 1002.92 1002.50 1001.45 1001.13 1001.15 1000.54
1016.90 1016.39 1016.04 1015.64 1015.36 1015.15 1015.04 1014.90 1014.77 1013.96 1012.52 1011.46 1010.98 1010.02 1009.62 1008.99 1008.74 1008.56 1008.39 1008.34 1008.24 1007.57 1007.04 1006.43 1005.88 1005.45 1005.37 1005.43 1005.88 1006.03 1005.76 1005.49 1004.73 1004.81 1003.95 1003.19 1003.41 1004.06 1004.17 1004.02 1002.98 1002.76 1002.82 1001.73
1016.74 1016.31 1015.92 1015.56 1015.35 1015.15 1015.03 1014.76 1014.85 1014.09 1012.92 1012.13 1011.70 1010.88 1010.40 1010.23 1009.78 1009.33 1009.41 1009.16 1008.55 1008.22 1007.54 1007.21 1006.92 1006.40 1006.53 1006.02 1005.94 1006.09 1005.95 1005.76 1005.20 1004.82 1004.59 1004.54 1005.52 1005.07 1004.67 1004.77 1005.15 1004.29 1003.81 1003.04
1016.49 1016.12 1015.76 1015.52 1015.34 1015.09 1014.99 1014.65 1014.70 1014.37 1013.38 1012.49 1012.19 1011.70 1011.17 1010.89 1010.58 1009.98 1010.53 1010.41 1009.70 1009.26 1008.71 1008.38 1008.01 1007.63 1007.50 1007.11 1006.82 1006.58 1006.13 1005.93 1005.71 1005.85 1005.79 1006.12 1006.41 1005.79 1006.15 1007.14 1006.17 1005.62 1004.68 1003.64
1016.38 1015.97 1015.66 1015.50 1015.33 1015.09 1014.95 1014.65 1014.69 1014.66 1013.85 1013.05 1012.81 1012.20 1012.00 1011.73 1011.30 1010.98 1011.11 1010.96 1010.84 1010.70 1010.15 1010.02 1009.55 1009.01 1008.70 1008.29 1007.39 1007.57 1007.43 1007.24 1006.74 1006.85 1006.76 1007.41 1007.74 1007.80 1007.99 1007.70 1007.03 1006.11 1005.39 1004.26
1016.15 1015.90 1015.72 1015.53 1015.33 1015.12 1015.03 1014.92 1014.92 1014.49 1013.69 1012.94 1012.33 1012.12 1011.94 1011.78 1011.80 1011.60 1011.17 1011.56 1011.69 1011.55 1011.73 1011.00 1010.68 1010.16 1009.99 1008.98 1008.56 1008.54 1008.31 1008.42 1007.92 1007.81 1007.85 1007.94 1008.24 1008.34 1008.24 1007.91 1007.25 1006.55 1005.76 1004.86
1016.18 1015.99 1015.79 1015.61 1015.34 1015.15 1015.02 1014.95 1014.97 1014.58 1014.08 1013.02 1012.87 1012.35 1012.44 1012.24 1011.74 1011.69 1011.54 1011.62 1012.17 1012.19 1012.08 1011.57 1011.28 1010.94 1011.18 1010.44 1010.26 1009.66 1009.34 1009.22 1008.96 1008.64 1008.57 1008.39 1008.52 1008.54 1008.53 1008.03 1007.49 1006.89 1006.09 1005.55
1016.29 1016.03 1015.78 1015.56 1015.32 1015.13 1015.09 1015.10 1015.08 1014.86 1014.56 1013.45 1012.91 1012.88 1013.06 1012.64 1012.15 1012.03 1012.07 1012.05 1012.23 1012.35 1012.25 1012.09 1012.02 1012.24 1012.09 1011.62 1011.20 1010.23 1010.06 1010.06 1009.81 1009.55 1009.95 1009.91 1009.24 1009.03 1008.91 1008.40 1007.94 1007.40 1006.82 1005.96
1016.25 1016.00 1015.73 1015.48 1015.27 1015.07 1015.03 1014.91 1014.95 1014.93 1014.66 1013.78 1013.30 1013.98 1013.59 1013.20 1012.93 1012.77 1012.91 1012.97 1013.08 1013.07 1012.86 1013.07 1013.16 1013.32 1012.98 1011.96 1011.35 1010.89 1011.18 1011.29 1011.35 1010.96 1010.78 1010.37 1009.83 1009.50 1009.09 1008.95 1008.50 1007.86 1007.37 1006.94
1016.12 1015.84 1015.63 1015.44 1015.21 1015.03 1015.20 1015.63 1015.41 1015.05 1014.87 1014.12 1013.91 1013.92 1014.16 1014.03 1013.71 1013.81 1013.76 1013.77 1013.83 1013.63 1013.73 1013.75 1013.68 1013.60 1013.28 1012.74 1011.76 1011.89 1011.91 1011.88 1011.85 1011.74 1011.29 1010.33 1009.93 1009.73 1009.50 1009.09 1008.47 1007.98 1007.52 1007.13
1015.88 1015.64 1015.47 1015.36 1015.32 1015.39 1015.37 1015.36 1015.24 1014.97 1014.71 1014.42 1014.48 1014.59 1014.60 1015.04 1014.50 1014.31 1014.89 1014.24 1014.17 1014.55 1014.57 1014.58 1014.21 1014.09 1013.80 1012.87 1012.46 1012.50 1012.46 1012.18 1011.95 1011.86 1011.68 1011.31 1010.69 1010.03 1009.49 1009.05 1008.53 1007.95 1007.40 1007.02
1015.60 1015.37 1015.23 1015.32 1015.37 1015.51 1015.46 1015.25 1015.15 1015.22 1015.11 1015.08 1015.41 1015.47 1015.64 1015.86 1015.72 1015.50 1015.31 1015.20 1014.65 1015.41 1014.95 1015.14 1015.07 1014.30 1013.68 1013.42 1013.27 1013.15 1013.15 1013.05 1012.76 1012.29 1011.73 1011.24 1010.84 1010.32 1009.72 1009.18 1008.63 1008.17 1007.60 1007.26
1015.41 1015.24 1015.31 1015.60 1016.01 1015.80 1015.36 1015.25 1015.14 1015.21 1015.72 1015.92 1016.40 1016.90 1016.37 1016.69 1016.04 1016.04 1015.97 1015.92 1015.87 1015.40 1015.94 1015.84 1015.14 1014.33 1014.05 1013.89 1013.72 1013.63 1013.41 1013.17 1012.83 1012.23 1011.49 1011.11 1010.57 1010.13 1009.61 1009.10 1008.68 1008.25 1007.76 1007.37
1015.91 1016.18 1016.33 1016.26 1015.93 1015.60 1015.52 1015.57 1015.68 1016.07 1016.37 1016.66 1017.06 1017.01 1016.88 1017.23 1016.63 1016.48 1016.81 1016.45 1016.29 1015.82 1016.05 1015.51 1014.97 1014.30 1014.07 1013.86 1013.73 1013.61 1013.32 1013.08 1012.65 1012.25 1011.62 1011.11 1010.68 1010.01 1009.34 1008.64 1008.15 1007.77 1007.33 1006.96
1017.14 1017.12 1016.97 1016.58 1016.14 1015.94 1015.82 1016.28 1016.42 1016.54 1016.90 1017.21 1017.27 1017.25 1017.27 1017.26 1017.15 1016.56 1016.75 1016.47 1016.43 1016.03 1016.37 1015.69 1014.91 1014.66 1014.51 1014.25 1013.86 1013.40 1012.93 1012.20 1011.62 1011.26 1010.76 1010.27 1009.80 1009.36 1008.77 1008.16 1007.54 1007.07 1006.67 1006.35
1017.11 1017.09 1016.79 1016.76 1016.87 1016.73 1016.84 1016.98 1017.10 1017.16 1017.58 1017.73 1017.54 1017.27 1017.20 1017.40 1017.09 1016.80 1016.59 1016.28 1016.30 1016.60 1016.26 1015.83 1015.36 1015.00 1014.81 1014.70 1014.22 1013.47 1012.66 1011.86 1011.06 1010.31 1009.73 1009.15 1008.58 1008.33 1008.01 1007.40 1006.94 1006.39 1005.86 1005.53
1017.01 1017.15 1017.57 1017.78 1018.01 1018.36 1018.40 1018.32 1018.09 1018.26 1018.21 1018.08 1017.84 1017.37 1017.22 1017.19 1016.86 1016.96 1016.62 1016.81 1016.71 1016.49 1016.56 1016.38 1015.72 1015.36 1015.02 1014.51 1013.72 1013.00 1011.95 1011.14 1010.31 1009.48 1008.79 1008.16 1007.53 1006.86 1006.55 1006.23 1005.84 1005.49 1004.97 1004.63
1017.64 1017.78 1018.61 1019.04 1019.27 1019.09 1018.95 1018.81 1018.58 1018.53 1018.47 1018.13 1017.77 1017.59 1017.43 1017.10 1016.96 1017.09 1016.93 1016.82 1016.95 1017.23 1017.08 1016.35 1015.65 1015.18 1014.79 1014.06 1013.21 1012.46 1011.39 1010.41 1009.61 1008.74 1007.83 1007.00 1006.39 1005.79 1005.12 1004.69 1004.40 1003.98 1003.60 1003.38
1018.38 1018.92 1019.34 1019.52 1019.44 1019.35 1019.18 1019.11 1018.88 1018.76 1018.48 1018.40 1018.08 1017.62 1017.31 1017.40 1017.38 1017.11 1017.27 1017.46 1017.51 1017.22 1016.79 1016.09 1015.40 1014.71 1013.95 1013.30 1012.64 1011.81 1010.69 1009.81 1008.87 1007.92 1006.89 1005.99 1005.33 1004.66 1003.94 1003.33 1002.84 1002.45 1002.15 1001.66
1019.35 1020.04 1020.09 1020.04 1019.97 1019.83 1019.68 1019.46 1019.17 1018.84 1018.64 1018.53 1018.36 1018.17 1018.36 1018.14 1017.73 1017.63 1017.65 1017.55 1017.28 1016.79 1016.19 1015.35 1014.55 1013.93 1013.19 1012.66 1012.23 1010.85 1009.99 1009.22 1008.26 1007.24 1006.10 1005.05 1004.04 1003.18 1002.47 1001.55 1000.99 1000.74 1000.37 1000.09
Wind_Speed
19 20 20 21 21 25 3 3 1 5 3 4 1 7 6 3 1 3 2 2 3 2 5 7 9 12 10 12 18 16 13 7 11 9 3 5 11 13 13 8 7 2 4 12
19 20 20 20 19 18 5 3 1 3 4 4 4 2 5 3 4 3 1 2 3 1 1 3 6 6 2 10 14 18 12 11 9 7 9 4 8 10 10 4 1 11 7 11
19 19 20 19 18 17 1 2 3 3 2 1 2 8 4 7 2 3 2 2 2 2 3 0 7 7 4 5 7 3 13 10 17 15 13 9 14 14 13 15 10 13 13 21
19 19 20 20 18 14 2 2 2 3 4 5 2 1 5 6 4 2 2 2 5 3 4 4 3 3 4 4 4 4 12 12 17 21 21 15 17 20 23 19 23 14 21 16
19 18 19 18 17 11 1 3 2 1 0 1 4 1 3 5 3 3 4 4 3 7 4 1 5 3 1 2 4 4 4 3 7 15 10 17 17 15 17 21 20 13 21 19
18 18 19 14 14 9 3 2 1 3 1 2 5 5 4 5 2 2 1 3 4 8 4 3 4 3 2 2 1 4 4 5 6 6 6 9 8 20 14 11 12 14 13 17
17 17 18 11 11 7 1 1 2 3 1 3 2 4 3 4 1 0 2 2 0 3 7 4 2 1 1 1 1 2 5 4 1 2 8 6 3 5 18 21 18 16 16 13
17 16 17 13 10 7 1 0 2 1 2 2 1 1 1 1 1 2 2 4 5 7 2 2 3 2 4 4 4 3 4 3 2 4 6 3 4 5 3 3 11 16 15 14
16 16 16 15 9 9 0 1 1 2 2 1 3 1 3 2 2 3 2 2 5 2 3 1 3 5 3 5 4 4 5 3 4 3 5 8 4 7 10 6 6 13 14 12
16 16 15 14 10 9 2 1 1 2 2 1 2 1 2 1 1 2 2 5 4 4 2 2 3 3 1 4 5 4 4 3 8 6 6 1 10 14 6 10 4 22 15 15
15 14 13 8 10 10 4 1 0 3 2 2 1 4 2 1 1 1 3 3 2 2 3 2 3 3 2 2 1 1 3 5 4 3 4 8 15 2 3 10 14 16 16 16
13 13 11 6 9 10 3 1 1 2 3 3 3 5 7 4 3 1 3 3 2 2 3 1 2 2 2 1 5 2 4 3 2 3 3 6 7 7 7 10 12 13 14 16
13 9 9 9 9 9 5 1 3 2 1 2 1 3 4 4 3 4 1 1 2 3 3 2 2 2 1 4 2 2 2 2 1 4 5 2 2 8 13 13 14 15 13 12
12 10 10 10 10 10 6 2 3 1 1 0 6 4 3 9 2 2 3 6 5 4 1 2 1 0 1 1 3 3 3 2 1 3 1 7 6 8 15 15 15 16 16 12
11 11 10 10 10 10 2 1 3 2 3 2 4 1 8 9 7 11 9 6 4 2 2 1 2 1 2 1 2 3 1 4 2 3 4 4 6 12 15 12 15 14 15 15
11 11 10 10 9 7 1 1 2 4 2 1 3 2 7 9 9 12 11 6 4 2 2 3 2 2 3 2 2 3 4 3 5 4 11 11 13 12 6 14 15 14 12 9
11 10 9 8 8 3 3 3 4 8 1 1 3 3 5 7 4 3 4 5 3 3 2 2 2 2 3 1 4 6 7 6 5 5 9 8 6 12 16 14 14 13 11 9
11 8 7 5 3 3 1 2 4 1 2 2 3 3 2 9 4 2 5 3 1 5 2 1 2 1 2 4 4 4 7 9 4 11 9 9 12 13 14 13 12 14 11 10
9 7 3 1 3 2 3 13 3 2 3 3 3 3 3 5 3 2 1 3 3 1 2 3 4 0 4 4 5 4 7 6 10 13 12 11 12 14 14 14 13 13 13 12
5 2 2 2 2 10 8 1 2 4 4 4 3 1 3 4 3 3 0 3 3 2 4 3 1 3 5 7 6 5 5 9 10 13 14 15 17 16 17 15 14 12 13 12
3 3 2 2 8 2 2 3 4 2 3 3 2 3 3 2 3 3 3 2 2 1 4 4 2 2 3 4 6 6 11 13 15 16 18 18 17 18 18 18 17 15 15 13
1 1 1 2 3 2 3 3 1 4 3 2 2 3 2 1 1 1 2 2 1 3 3 2 1 1 5 7 10 13 18 23 22 20 20 20 20 19 19 19 19 18 18 15
1 0 2 3 3 8 5 5 4 3 3 5 4 1 2 1 0 2 1 3 4 1 2 3 2 3 5 7 10 16 18 20 20 20 21 22 21 21 22 21 20 21 20 18
3 4 6 4 5 5 4 4 4 3 2 4 3 1 2 1 2 1 2 2 1 2 5 3 3 6 11 15 15 16 19 20 20 21 20 21 20 20 21 20 20 20 20 20
4 4 6 5 2 2 2 3 1 3 3 3 0 1 1 2 2 2 0 1 4 1 3 3 5 13 12 13 14 15 16 15 16 18 18 19 20 19 19 19 20 21 20 20
3 6 2 2 0 2 2 3 2 3 4 1 1 2 2 4 2 2 4 2 1 3 3 6 10 13 14 13 14 15 16 15 16 16 17 16 17 18 20 21 20 19 20 21
4 3 1 2 1 2 2 2 3 3 2 3 2 4 4 2 1 2 2 3 3 4 8 10 13 14 15 14 14 16 17 17 18 18 18 18 18 17 17 19 20 20 22 22
Wind_Direction
341 342 341 341 340 340 22 317 165 41 185 175 224 207 195 189 194 169 283 256 253 238 158 169 173 193 223 188 159 190 199 229 232 207 101 269 225 227 207 233 201 274 313 275
342 343 343 341 342 354 320 8 79 121 286 191 194 198 216 223 195 230 214 288 241 202 182 161 206 195 45 164 175 182 174 214 220 222 204 182 222 199 222 231 237 239 270 270
343 343 344 341 341 348 275 283 159 141 196 318 224 194 182 211 196 225 208 266 260 252 213 144 172 152 150 129 179 126 170 218 219 229 233 205 215 224 214 233 245 255 243 272
346 343 343 341 343 349 281 351 57 351 183 206 210 221 172 165 188 200 203 197 227 205 217 151 164 143 142 129 125 110 187 220 210 226 228 205 221 229 232 224 238 241 256 257
347 343 342 344 348 349 323 344 338 9 87 269 194 246 181 193 165 213 180 227 185 192 205 316 172 164 165 109 108 122 158 222 195 233 224 222 219 228 236 227 240 247 262 276
348 344 340 352 2 358 5 24 249 279 62 163 188 196 185 178 166 184 23 167 134 138 100 342 343 330 41 62 60 116 173 181 193 228 183 179 234 233 212 204 209 226 240 251
347 341 342 0 12 47 318 329 291 294 183 243 183 165 183 174 161 283 26 124 163 63 300 244 209 192 172 189 229 270 154 139 260 127 154 213 213 24 233 228 231 221 249 244
347 340 346 354 1 17 338 200 299 328 292 322 162 157 128 112 79 153 32 43 6 317 318 134 124 124 169 127 65 227 238 153 161 226 214 324 140 61 61 195 249 233 245 264
340 338 343 348 358 4 15 281 224 280 298 114 333 320 11 127 141 137 42 38 343 346 50 111 180 179 160 186 139 63 136 59 259 170 245 230 71 339 323 263 231 21 345 311
330 337 340 348 358 360 346 318 260 251 295 83 317 30 27 64 80 82 4 354 14 347 98 134 182 182 309 192 190 168 151 162 224 214 241 204 353 321 320 201 339 326 329 319
336 336 337 351 358 359 3 356 348 322 315 308 296 345 40 100 25 135 62 190 94 89 134 205 150 223 123 251 62 249 205 189 184 156 225 234 359 55 346 334 317 318 316 313
345 344 348 10 1 359 29 286 39 315 246 344 314 298 299 271 355 63 39 49 72 63 100 146 136 171 208 232 209 150 217 332 345 304 55 105 48 56 359 344 335 334 322 319
329 351 5 9 0 359 29 319 334 258 306 217 183 31 354 54 321 309 358 121 109 108 0 101 84 179 255 201 201 278 143 27 276 212 156 90 105 37 10 357 353 350 347 343
11 12 5 358 355 351 358 11 354 308 69 55 65 358 26 328 3 64 8 109 104 90 336 68 84 124 272 28 12 296 11 295 43 259 275 304 179 7 353 346 355 357 359 5
350 351 354 348 348 349 91 130 45 13 325 67 103 225 26 20 53 62 59 72 79 40 94 48 69 54 252 85 242 248 349 25 308 25 53 338 293 327 331 339 349 350 352 357
342 342 339 338 342 349 218 254 142 11 326 298 101 16 12 20 44 53 43 42 58 59 54 63 75 34 306 314 263 15 65 35 2 336 324 305 296 303 336 333 324 327 328 350
334 334 333 335 341 18 46 43 324 333 271 353 114 88 31 350 10 49 23 38 52 18 84 64 14 75 327 275 249 66 13 350 6 13 331 312 319 315 316 313 323 314 299 292
329 329 327 344 64 126 80 18 349 320 81 30 84 81 77 6 20 38 1 16 39 35 41 117 19 195 311 257 307 335 1 348 355 357 351 323 316 320 317 312 316 320 304 295
317 324 323 156 33 34 326 317 20 37 34 82 49 24 69 355 24 353 83 338 72 358 47 56 293 56 238 348 329 9 7 355 327 327 326 324 331 328 330 327 314 309 310 296
334 18 32 48 359 313 308 19 28 32 8 35 64 267 46 330 356 65 21 13 41 62 53 285 279 279 302 286 275 276 319 323 322 317 320 317 312 314 315 312 307 301 294 297
30 25 35 309 312 330 30 49 37 11 67 34 34 8 13 41 11 53 14 75 13 90 48 333 13 310 302 276 283 290 308 310 302 294 288 287 287 288 292 295 294 289 284 281
347 321 292 298 18 25 51 27 49 33 59 51 12 20 355 50 299 48 54 67 292 76 336 310 20 342 289 287 289 304 316 311 305 299 289 286 280 277 279 279 279 280 280 278
162 97 55 8 345 39 37 30 22 47 28 9 343 15 343 187 193 77 48 43 43 310 30 355 289 280 286 284 290 296 295 296 295 295 292 287 280 275 272 271 271 273 271 269
49 28 36 27 32 44 19 360 12 33 345 336 311 305 9 1 70 6 62 50 236 60 17 318 282 303 310 311 306 307 305 302 295 290 286 281 278 277 276 269 266 263 263 264
51 30 50 44 355 3 355 347 336 357 320 332 241 155 310 53 87 20 303 101 64 114 245 261 288 301 309 302 300 304 304 303 303 298 287 281 280 276 273 267 264 259 256 253
54 44 79 10 304 17 4 359 1 353 340 233 289 29 64 60 1 34 48 57 229 251 239 281 296 300 297 297 302 300 307 321 313 307 304 282 276 270 268 271 268 265 258 254
46 36 36 348 279 309 329 317 324 315 321 36 359 41 26 291 357 40 130 212 242 286 290 288 291 286 292 303 308 301 316 314 319 316 312 304 292 286 275 262 255 252 252 254